Location: Kings Park
(40.8862°N, 73.2573°W)
Time: 04:42:58
(UTC+00:00)

CZ-2C R/B - Pass Details

Date: 29 October 2020
Orbit: 703 x 909 km, 98.1° (Epoch: 27 November)

Event Time Altitude Azimuth Distance (km) Brightness Sun altitude
Rises 22:37:43 0° 136° (SE) 3,522 6.1 -9.2°
Reaches altitude 10° 22:40:25 10° 125° (SE) 2,575 5.3 -9.7°
Maximum altitude 22:45:19 30° 67° (ENE) 1,547 4.0 -10.6°
Drops below altitude 10° 22:50:06 10° 9° (N) 2,514 5.5 -11.5°
Sets 22:52:42 0° 359° (N) 3,425 6.3 -12.0°
